Time,TemperatureF,DewpointF,PressureIn,WindDirection,WindDirectionDegrees,WindSpeedMPH,WindSpeedGustMPH,Humidity,HourlyPrecipIn,Conditions,Clouds,dailyrainin,SoftwareType,DateUTC
2013-01-15 00:02:00,14.4,8.2,30.29,West,270,1.6,2.5,76,0.00,,,0.00,WUHU216HW,2013-01-15 06:02:00,
2013-01-15 00:07:00,14.4,8.2,30.29,West,270,1.8,2.2,76,0.00,,,0.00,WUHU216HW,2013-01-15 06:07:00,
2013-01-15 00:12:00,14.6,8.4,30.29,West,270,1.3,1.8,76,0.00,,,0.00,WUHU216HW,2013-01-15 06:12:00,
2013-01-15 00:17:00,14.6,8.4,30.29,West,270,1.8,1.8,76,0.00,,,0.00,WUHU216HW,2013-01-15 06:17:00,
2013-01-15 00:22:00,14.4,8.2,30.30,West,270,0.0,1.8,76,0.00,,,0.00,WUHU216HW,2013-01-15 06:22:00,
2013-01-15 00:27:00,14.4,8.5,30.29,West,270,0.4,0.7,77,0.00,,,0.00,WUHU216HW,2013-01-15 06:27:00,
2013-01-15 00:32:00,14.8,8.6,30.29,West,270,0.4,0.7,76,0.00,,,0.00,WUHU216HW,2013-01-15 06:32:00,
2013-01-15 00:37:00,14.6,8.4,30.29,West,270,0.4,0.4,76,0.00,,,0.00,WUHU216HW,2013-01-15 06:37:00,
2013-01-15 00:42:00,14.6,8.4,30.29,West,270,0.7,0.7,76,0.00,,,0.00,WUHU216HW,2013-01-15 06:42:00,
2013-01-15 00:47:00,14.6,8.4,30.29,West,270,1.3,1.3,76,0.00,,,0.00,WUHU216HW,2013-01-15 06:47:00,
2013-01-15 00:52:00,14.6,8.4,30.29,West,270,0.4,1.8,76,0.00,,,0.00,WUHU216HW,2013-01-15 06:52:00,
2013-01-15 00:57:00,14.4,8.2,30.29,West,270,0.9,1.8,76,0.00,,,0.00,WUHU216HW,2013-01-15 06:57:00,
2013-01-15 01:02:00,14.2,8.0,30.29,West,270,0.2,1.1,76,0.00,,,0.00,WUHU216HW,2013-01-15 07:02:00,
2013-01-15 01:07:00,14.0,7.8,30.29,West,270,0.0,1.1,76,0.00,,,0.00,WUHU216HW,2013-01-15 07:07:00,
2013-01-15 01:12:00,13.9,7.7,30.29,West,270,0.0,0.7,76,0.00,,,0.00,WUHU216HW,2013-01-15 07:12:00,
2013-01-15 01:17:00,13.7,7.5,30.29,West,270,0.0,0.2,76,0.00,,,0.00,WUHU216HW,2013-01-15 07:17:00,
2013-01-15 01:22:00,14.0,8.1,30.29,West,270,0.0,0.0,77,0.00,,,0.00,WUHU216HW,2013-01-15 07:22:00,
2013-01-15 01:27:00,14.4,8.5,30.29,West,270,1.6,1.6,77,0.00,,,0.00,WUHU216HW,2013-01-15 07:27:00,
2013-01-15 01:32:00,14.4,8.5,30.29,West,270,0.0,1.8,77,0.00,,,0.00,WUHU216HW,2013-01-15 07:32:00,
2013-01-15 01:37:00,14.4,8.5,30.29,West,270,0.0,1.8,77,0.00,,,0.00,WUHU216HW,2013-01-15 07:37:00,
2013-01-15 01:42:00,14.4,8.5,30.29,West,270,0.0,0.0,77,0.00,,,0.00,WUHU216HW,2013-01-15 07:42:00,
2013-01-15 02:00:00,13.7,7.7,30.28,West,270,0.0,0.0,77,0.00,,,0.00,WUHU216HW,2013-01-15 08:00:00,
2013-01-15 02:05:00,13.7,7.7,30.28,West,270,1.1,1.1,77,0.00,,,0.00,WUHU216HW,2013-01-15 08:05:00,
2013-01-15 02:10:00,13.7,7.7,30.28,West,270,0.2,1.3,77,0.00,,,0.00,WUHU216HW,2013-01-15 08:10:00,
2013-01-15 02:15:00,13.7,7.7,30.28,West,270,0.4,1.3,77,0.00,,,0.00,WUHU216HW,2013-01-15 08:15:00,
2013-01-15 02:20:00,13.5,7.6,30.27,West,270,0.0,0.7,77,0.00,,,0.00,WUHU216HW,2013-01-15 08:20:00,
2013-01-15 02:25:00,13.9,8.3,30.28,West,270,0.0,0.7,78,0.00,,,0.00,WUHU216HW,2013-01-15 08:25:00,
2013-01-15 02:30:00,13.9,7.9,30.27,West,270,1.6,1.6,77,0.00,,,0.00,WUHU216HW,2013-01-15 08:30:00,
2013-01-15 02:35:00,13.7,7.7,30.28,West,270,0.0,1.6,77,0.00,,,0.00,WUHU216HW,2013-01-15 08:35:00,
2013-01-15 02:40:00,13.5,7.6,30.27,West,270,1.8,1.8,77,0.00,,,0.00,WUHU216HW,2013-01-15 08:40:00,
2013-01-15 02:45:00,13.3,7.4,30.27,West,270,1.8,2.0,77,0.00,,,0.00,WUHU216HW,2013-01-15 08:45:00,
2013-01-15 02:50:00,13.3,7.8,30.27,West,270,1.1,2.0,78,0.00,,,0.00,WUHU216HW,2013-01-15 08:50:00,
2013-01-15 02:55:00,13.1,7.6,30.27,West,270,1.8,1.8,78,0.00,,,0.00,WUHU216HW,2013-01-15 08:55:00,
2013-01-15 03:00:00,13.0,7.4,30.28,West,270,0.0,1.8,78,0.00,,,0.00,WUHU216HW,2013-01-15 09:00:00,
2013-01-15 03:05:00,13.3,8.0,30.27,West,270,0.0,0.4,79,0.00,,,0.00,WUHU216HW,2013-01-15 09:05:00,
2013-01-15 03:10:00,13.7,8.4,30.27,West,270,0.4,0.4,79,0.00,,,0.00,WUHU216HW,2013-01-15 09:10:00,
2013-01-15 03:15:00,14.0,8.7,30.27,West,270,1.1,1.1,79,0.00,,,0.00,WUHU216HW,2013-01-15 09:15:00,
2013-01-15 03:20:00,14.4,9.1,30.27,West,270,0.4,1.1,79,0.00,,,0.00,WUHU216HW,2013-01-15 09:20:00,
2013-01-15 03:25:00,14.4,8.8,30.27,West,270,0.0,1.1,78,0.00,,,0.00,WUHU216HW,2013-01-15 09:25:00,
2013-01-15 03:30:00,14.0,8.5,30.27,West,270,0.0,0.2,78,0.00,,,0.00,WUHU216HW,2013-01-15 09:30:00,
2013-01-15 03:35:00,13.7,7.7,30.27,West,270,0.0,0.0,77,0.00,,,0.00,WUHU216HW,2013-01-15 09:35:00,
2013-01-15 03:40:00,13.5,7.6,30.27,West,270,0.0,0.0,77,0.00,,,0.00,WUHU216HW,2013-01-15 09:40:00,
2013-01-15 03:45:00,13.1,7.2,30.27,West,270,0.0,0.0,77,0.00,,,0.00,WUHU216HW,2013-01-15 09:45:00,
2013-01-15 03:50:00,12.8,6.8,30.27,West,270,0.0,0.4,77,0.00,,,0.00,WUHU216HW,2013-01-15 09:50:00,
2013-01-15 03:55:00,12.4,6.5,30.26,West,270,1.8,1.8,77,0.00,,,0.00,WUHU216HW,2013-01-15 09:55:00,
2013-01-15 04:00:00,12.2,6.7,30.26,West,270,0.0,1.8,78,0.00,,,0.00,WUHU216HW,2013-01-15 10:00:00,
2013-01-15 04:05:00,12.1,6.5,30.26,West,270,1.1,1.8,78,0.00,,,0.00,WUHU216HW,2013-01-15 10:05:00,
2013-01-15 04:10:00,11.9,6.3,30.26,West,270,0.0,1.8,78,0.00,,,0.00,WUHU216HW,2013-01-15 10:10:00,
2013-01-15 04:15:00,11.9,6.6,30.26,West,270,0.0,1.6,79,0.00,,,0.00,WUHU216HW,2013-01-15 10:15:00,
2013-01-15 04:20:00,12.6,7.6,30.26,West,270,0.7,1.1,80,0.00,,,0.00,WUHU216HW,2013-01-15 10:20:00,
2013-01-15 04:25:00,13.1,8.4,30.25,West,270,1.1,1.1,81,0.00,,,0.00,WUHU216HW,2013-01-15 10:25:00,
2013-01-15 04:30:00,13.7,8.6,30.25,West,270,0.7,1.1,80,0.00,,,0.00,WUHU216HW,2013-01-15 10:30:00,
2013-01-15 04:36:00,13.7,8.6,30.25,West,270,0.9,0.9,80,0.00,,,0.00,WUHU216HW,2013-01-15 10:36:00,
2013-01-15 04:41:00,13.7,8.6,30.25,West,270,0.9,0.9,80,0.00,,,0.00,WUHU216HW,2013-01-15 10:41:00,
2013-01-15 04:46:00,14.0,9.0,30.25,West,270,1.1,1.1,80,0.00,,,0.00,WUHU216HW,2013-01-15 10:46:00,
2013-01-15 04:51:00,14.0,9.0,30.25,West,270,1.1,1.1,80,0.00,,,0.00,WUHU216HW,2013-01-15 10:51:00,
2013-01-15 04:56:00,14.2,8.9,30.24,West,270,0.7,1.3,79,0.00,,,0.00,WUHU216HW,2013-01-15 10:56:00,
2013-01-15 05:01:00,14.2,8.9,30.24,West,270,0.9,1.3,79,0.00,,,0.00,WUHU216HW,2013-01-15 11:01:00,
2013-01-15 05:06:00,14.2,8.9,30.24,West,270,0.4,0.9,79,0.00,,,0.00,WUHU216HW,2013-01-15 11:06:00,
2013-01-15 05:11:00,14.4,9.1,30.24,West,270,0.0,0.4,79,0.00,,,0.00,WUHU216HW,2013-01-15 11:11:00,
2013-01-15 05:16:00,14.0,8.5,30.24,West,270,0.0,0.2,78,0.00,,,0.00,WUHU216HW,2013-01-15 11:16:00,
2013-01-15 05:21:00,13.7,8.1,30.24,West,270,0.0,0.0,78,0.00,,,0.00,WUHU216HW,2013-01-15 11:21:00,
2013-01-15 05:26:00,13.0,7.4,30.24,West,270,0.2,0.2,78,0.00,,,0.00,WUHU216HW,2013-01-15 11:26:00,
2013-01-15 05:31:00,12.8,7.2,30.24,West,270,0.2,0.4,78,0.00,,,0.00,WUHU216HW,2013-01-15 11:31:00,
2013-01-15 05:36:00,13.0,7.4,30.24,West,270,0.2,0.4,78,0.00,,,0.00,WUHU216HW,2013-01-15 11:36:00,
2013-01-15 05:41:00,12.6,7.0,30.24,West,270,0.7,0.7,78,0.00,,,0.00,WUHU216HW,2013-01-15 11:41:00,
2013-01-15 05:46:00,12.4,6.9,30.24,West,270,0.0,0.7,78,0.00,,,0.00,WUHU216HW,2013-01-15 11:46:00,
2013-01-15 05:51:00,12.2,6.7,30.24,West,270,0.0,0.0,78,0.00,,,0.00,WUHU216HW,2013-01-15 11:51:00,
2013-01-15 05:56:00,11.9,6.3,30.24,West,270,0.9,0.9,78,0.00,,,0.00,WUHU216HW,2013-01-15 11:56:00,
2013-01-15 06:01:00,11.7,6.1,30.24,West,270,0.4,1.1,78,0.00,,,0.00,WUHU216HW,2013-01-15 12:01:00,
2013-01-15 06:06:00,11.7,6.1,30.24,West,270,0.7,1.1,78,0.00,,,0.00,WUHU216HW,2013-01-15 12:06:00,
2013-01-15 06:11:00,11.7,6.4,30.24,West,270,0.0,1.1,79,0.00,,,0.00,WUHU216HW,2013-01-15 12:11:00,
2013-01-15 06:16:00,11.5,6.2,30.24,West,270,0.0,1.1,79,0.00,,,0.00,WUHU216HW,2013-01-15 12:16:00,
2013-01-15 06:21:00,11.2,6.1,30.24,West,270,0.0,0.0,80,0.00,,,0.00,WUHU216HW,2013-01-15 12:21:00,
2013-01-15 06:26:00,10.6,5.6,30.24,West,270,0.0,0.0,80,0.00,,,0.00,WUHU216HW,2013-01-15 12:26:00,
2013-01-15 06:31:00,10.4,5.4,30.24,West,270,1.1,2.0,80,0.00,,,0.00,WUHU216HW,2013-01-15 12:31:00,
2013-01-15 06:37:00,10.4,5.1,30.24,West,270,1.1,2.0,79,0.00,,,0.00,WUHU216HW,2013-01-15 12:37:00,
2013-01-15 06:42:00,10.4,5.4,30.24,West,270,1.3,1.6,80,0.00,,,0.00,WUHU216HW,2013-01-15 12:42:00,
2013-01-15 06:47:00,10.6,5.6,30.25,West,270,2.0,2.0,80,0.00,,,0.00,WUHU216HW,2013-01-15 12:47:00,
2013-01-15 06:52:00,10.8,6.0,30.25,West,270,1.3,2.0,81,0.00,,,0.00,WUHU216HW,2013-01-15 12:52:00,
2013-01-15 06:57:00,10.8,6.0,30.25,West,270,1.3,1.8,81,0.00,,,0.00,WUHU216HW,2013-01-15 12:57:00,
2013-01-15 07:02:00,11.2,6.4,30.26,West,270,2.7,2.7,81,0.00,,,0.00,WUHU216HW,2013-01-15 13:02:00,
2013-01-15 07:07:00,11.3,6.6,30.25,West,270,3.4,3.4,81,0.00,,,0.00,WUHU216HW,2013-01-15 13:07:00,
2013-01-15 07:12:00,11.5,6.8,30.25,West,270,2.7,3.4,81,0.00,,,0.00,WUHU216HW,2013-01-15 13:12:00,
2013-01-15 07:17:00,11.9,7.1,30.26,West,270,2.5,3.4,81,0.00,,,0.00,WUHU216HW,2013-01-15 13:17:00,
2013-01-15 07:22:00,11.9,7.1,30.26,West,270,2.2,3.4,81,0.00,,,0.00,WUHU216HW,2013-01-15 13:22:00,
2013-01-15 07:27:00,12.1,7.3,30.26,West,270,1.3,2.7,81,0.00,,,0.00,WUHU216HW,2013-01-15 13:27:00,
2013-01-15 07:32:00,11.9,7.1,30.26,West,270,2.0,2.7,81,0.00,,,0.00,WUHU216HW,2013-01-15 13:32:00,
2013-01-15 07:37:00,11.9,7.1,30.26,West,270,3.6,3.6,81,0.00,,,0.00,WUHU216HW,2013-01-15 13:37:00,
2013-01-15 07:42:00,11.9,7.1,30.26,West,270,3.4,3.6,81,0.00,,,0.00,WUHU216HW,2013-01-15 13:42:00,
2013-01-15 07:47:00,11.9,7.1,30.26,West,270,3.4,3.4,81,0.00,,,0.00,WUHU216HW,2013-01-15 13:47:00,
2013-01-15 07:52:00,12.2,7.5,30.26,West,270,3.4,3.6,81,0.00,,,0.00,WUHU216HW,2013-01-15 13:52:00,
2013-01-15 07:57:00,12.4,7.7,30.26,West,270,1.3,3.6,81,0.00,,,0.00,WUHU216HW,2013-01-15 13:57:00,
2013-01-15 08:02:00,12.6,7.8,30.26,West,270,3.4,3.4,81,0.00,,,0.00,WUHU216HW,2013-01-15 14:02:00,
2013-01-15 08:07:00,12.6,7.8,30.26,West,270,2.5,3.4,81,0.00,,,0.00,WUHU216HW,2013-01-15 14:07:00,
2013-01-15 08:12:00,12.8,8.0,30.25,West,270,1.1,3.1,81,0.00,,,0.00,WUHU216HW,2013-01-15 14:12:00,
2013-01-15 08:17:00,13.3,8.6,30.26,West,270,1.8,2.9,81,0.00,,,0.00,WUHU216HW,2013-01-15 14:17:00,
2013-01-15 08:22:00,13.5,8.7,30.26,West,270,0.9,2.9,81,0.00,,,0.00,WUHU216HW,2013-01-15 14:22:00,
2013-01-15 08:27:00,14.8,10.0,30.26,West,270,0.9,2.5,81,0.00,,,0.00,WUHU216HW,2013-01-15 14:27:00,
2013-01-15 08:32:00,16.7,11.9,30.26,West,270,1.1,2.5,81,0.00,,,0.00,WUHU216HW,2013-01-15 14:32:00,
2013-01-15 08:37:00,18.7,13.8,30.25,West,270,1.8,1.8,81,0.00,,,0.00,WUHU216HW,2013-01-15 14:37:00,
2013-01-15 08:42:00,20.5,15.3,30.25,West,270,3.4,4.0,80,0.00,,,0.00,WUHU216HW,2013-01-15 14:42:00,
2013-01-15 08:47:00,21.4,16.2,30.26,West,270,3.6,4.0,80,0.00,,,0.00,WUHU216HW,2013-01-15 14:47:00,
2013-01-15 08:52:00,21.4,16.2,30.26,West,270,3.6,3.6,80,0.00,,,0.00,WUHU216HW,2013-01-15 14:52:00,
2013-01-15 09:00:00,26.6,20.0,30.25,West,270,3.4,3.4,76,0.00,,,0.00,WUHU216HW,2013-01-15 15:00:00,
2013-01-15 09:05:00,28.4,21.5,30.25,West,270,3.8,3.8,75,0.00,,,0.00,WUHU216HW,2013-01-15 15:05:00,
2013-01-15 09:10:00,30.2,22.6,30.25,West,270,4.0,4.0,73,0.00,,,0.00,WUHU216HW,2013-01-15 15:10:00,
2013-01-15 09:15:00,31.7,23.4,30.25,West,270,1.8,4.0,71,0.00,,,0.00,WUHU216HW,2013-01-15 15:15:00,
2013-01-15 09:20:00,31.3,21.6,30.25,West,270,1.6,4.0,67,0.00,,,0.00,WUHU216HW,2013-01-15 15:20:00,
2013-01-15 09:25:00,31.3,22.0,30.25,West,270,1.8,3.6,68,0.00,,,0.00,WUHU216HW,2013-01-15 15:25:00,
2013-01-15 09:30:00,33.1,24.0,30.24,West,270,3.4,3.6,69,0.00,,,0.00,WUHU216HW,2013-01-15 15:30:00,
2013-01-15 09:35:00,33.7,23.8,30.24,West,270,4.0,4.0,67,0.00,,,0.00,WUHU216HW,2013-01-15 15:35:00,
2013-01-15 09:40:00,34.0,23.4,30.24,West,270,3.4,4.0,65,0.00,,,0.00,WUHU216HW,2013-01-15 15:40:00,
2013-01-15 09:45:00,34.4,23.4,30.24,West,270,2.7,4.0,64,0.00,,,0.00,WUHU216HW,2013-01-15 15:45:00,
2013-01-15 09:50:00,35.1,24.1,30.24,West,270,3.8,3.8,64,0.00,,,0.00,WUHU216HW,2013-01-15 15:50:00,
2013-01-15 09:55:00,36.0,24.0,30.24,West,270,4.7,5.6,61,0.00,,,0.00,WUHU216HW,2013-01-15 15:55:00,
2013-01-15 10:00:00,35.6,23.2,30.24,West,270,5.4,5.6,60,0.00,,,0.00,WUHU216HW,2013-01-15 16:00:00,
2013-01-15 10:05:00,35.3,22.9,30.24,West,270,5.4,5.8,60,0.00,,,0.00,WUHU216HW,2013-01-15 16:05:00,
2013-01-15 10:10:00,35.8,23.0,30.24,West,270,3.4,6.3,59,0.00,,,0.00,WUHU216HW,2013-01-15 16:10:00,
2013-01-15 10:15:00,37.3,24.7,30.24,West,270,4.0,6.3,60,0.00,,,0.00,WUHU216HW,2013-01-15 16:15:00,
2013-01-15 10:20:00,38.2,25.0,30.23,West,270,3.6,4.0,59,0.00,,,0.00,WUHU216HW,2013-01-15 16:20:00,
2013-01-15 10:25:00,38.9,24.8,30.24,West,270,3.6,4.0,57,0.00,,,0.00,WUHU216HW,2013-01-15 16:25:00,
2013-01-15 10:30:00,40.0,25.4,30.23,West,270,4.3,5.4,56,0.00,,,0.00,WUHU216HW,2013-01-15 16:30:00,
2013-01-15 10:35:00,40.1,24.3,30.23,West,270,3.4,5.4,53,0.00,,,0.00,WUHU216HW,2013-01-15 16:35:00,
2013-01-15 10:41:00,40.1,24.3,30.23,West,270,3.6,4.0,53,0.00,,,0.00,WUHU216HW,2013-01-15 16:41:00,
2013-01-15 10:46:00,40.5,24.6,30.23,West,270,3.8,4.0,53,0.00,,,0.00,WUHU216HW,2013-01-15 16:46:00,
2013-01-15 10:51:00,40.7,24.3,30.23,West,270,5.4,5.4,52,0.00,,,0.00,WUHU216HW,2013-01-15 16:51:00,
2013-01-15 10:56:00,40.5,23.3,30.23,West,270,5.4,5.8,50,0.00,,,0.00,WUHU216HW,2013-01-15 16:56:00,
2013-01-15 11:01:00,40.0,22.8,30.22,West,270,5.1,5.8,50,0.00,,,0.00,WUHU216HW,2013-01-15 17:01:00,
2013-01-15 11:06:00,40.0,22.8,30.22,West,270,4.0,5.1,50,0.00,,,0.00,WUHU216HW,2013-01-15 17:06:00,
2013-01-15 11:11:00,40.7,23.9,30.22,West,270,4.0,4.9,51,0.00,,,0.00,WUHU216HW,2013-01-15 17:11:00,
2013-01-15 11:16:00,42.7,25.4,30.21,West,270,4.0,4.7,50,0.00,,,0.00,WUHU216HW,2013-01-15 17:16:00,
2013-01-15 11:21:00,41.0,22.7,30.22,West,270,3.4,6.3,48,0.00,,,0.00,WUHU216HW,2013-01-15 17:21:00,
2013-01-15 11:26:00,39.2,21.1,30.22,West,270,4.5,6.3,48,0.00,,,0.00,WUHU216HW,2013-01-15 17:26:00,
2013-01-15 11:31:00,37.4,19.4,30.22,West,270,5.4,6.9,48,0.00,,,0.00,WUHU216HW,2013-01-15 17:31:00,
2013-01-15 11:36:00,36.4,19.0,30.21,West,270,4.9,6.9,49,0.00,,,0.00,WUHU216HW,2013-01-15 17:36:00,
2013-01-15 11:41:00,35.6,19.4,30.21,West,270,4.0,5.4,51,0.00,,,0.00,WUHU216HW,2013-01-15 17:41:00,
2013-01-15 11:46:00,35.6,19.8,30.21,West,270,5.6,5.8,52,0.00,,,0.00,WUHU216HW,2013-01-15 17:46:00,
2013-01-15 11:51:00,35.5,20.0,30.21,West,270,5.4,6.3,53,0.00,,,0.00,WUHU216HW,2013-01-15 17:51:00,
2013-01-15 11:56:00,35.8,20.8,30.21,West,270,6.7,6.7,54,0.00,,,0.00,WUHU216HW,2013-01-15 17:56:00,
2013-01-15 12:01:00,36.0,20.5,30.20,West,270,4.9,6.7,53,0.00,,,0.00,WUHU216HW,2013-01-15 18:01:00,
2013-01-15 12:06:00,35.8,20.3,30.20,West,270,4.7,6.0,53,0.00,,,0.00,WUHU216HW,2013-01-15 18:06:00,
2013-01-15 12:11:00,35.6,20.6,30.19,West,270,4.0,6.0,54,0.00,,,0.00,WUHU216HW,2013-01-15 18:11:00,
2013-01-15 12:16:00,35.3,20.3,30.19,West,270,5.4,5.6,54,0.00,,,0.00,WUHU216HW,2013-01-15 18:16:00,
2013-01-15 12:21:00,34.9,20.3,30.18,West,270,3.4,5.4,55,0.00,,,0.00,WUHU216HW,2013-01-15 18:21:00,
2013-01-15 12:26:00,33.8,19.7,30.18,West,270,4.0,4.3,56,0.00,,,0.00,WUHU216HW,2013-01-15 18:26:00,
2013-01-15 12:31:00,34.6,20.4,30.18,SW,225,2.7,6.5,56,0.00,,,0.00,WUHU216HW,2013-01-15 18:31:00,
2013-01-15 12:36:00,34.9,21.3,30.17,SW,225,2.5,6.5,57,0.00,,,0.00,WUHU216HW,2013-01-15 18:36:00,
2013-01-15 12:41:00,35.1,21.4,30.17,SW,225,2.9,4.7,57,0.00,,,0.00,WUHU216HW,2013-01-15 18:41:00,
2013-01-15 12:46:00,34.6,21.2,30.17,SW,225,3.4,4.7,58,0.00,,,0.00,WUHU216HW,2013-01-15 18:46:00,
2013-01-15 12:51:00,34.4,21.1,30.16,SW,225,4.0,4.7,58,0.00,,,0.00,WUHU216HW,2013-01-15 18:51:00,
2013-01-15 12:56:00,34.6,21.2,30.16,SW,225,3.4,5.4,58,0.00,,,0.00,WUHU216HW,2013-01-15 18:56:00,
2013-01-15 13:01:00,34.9,21.6,30.16,SW,225,3.1,5.4,58,0.00,,,0.00,WUHU216HW,2013-01-15 19:01:00,
2013-01-15 13:06:00,35.1,22.2,30.16,SW,225,3.6,3.6,59,0.00,,,0.00,WUHU216HW,2013-01-15 19:06:00,
2013-01-15 13:11:00,34.9,21.6,30.16,SW,225,6.7,7.6,58,0.00,,,0.00,WUHU216HW,2013-01-15 19:11:00,
2013-01-15 13:16:00,35.5,22.6,30.16,SW,225,4.3,7.6,59,0.00,,,0.00,WUHU216HW,2013-01-15 19:16:00,
2013-01-15 13:21:00,35.3,22.4,30.16,SW,225,2.7,7.2,59,0.00,,,0.00,WUHU216HW,2013-01-15 19:21:00,
2013-01-15 13:26:00,35.5,22.6,30.16,SSW,203,6.7,8.1,59,0.00,,,0.00,WUHU216HW,2013-01-15 19:26:00,
2013-01-15 13:31:00,35.8,23.0,30.15,SW,225,4.3,8.1,59,0.00,,,0.00,WUHU216HW,2013-01-15 19:31:00,
2013-01-15 13:36:00,35.8,22.5,30.15,SW,225,2.5,7.6,58,0.00,,,0.00,WUHU216HW,2013-01-15 19:36:00,
2013-01-15 13:41:00,35.8,23.0,30.15,SW,225,4.0,6.7,59,0.00,,,0.00,WUHU216HW,2013-01-15 19:41:00,
2013-01-15 13:46:00,35.6,22.8,30.15,SW,225,6.5,6.7,59,0.00,,,0.00,WUHU216HW,2013-01-15 19:46:00,
2013-01-15 13:51:00,35.6,23.2,30.15,SW,225,3.1,6.7,60,0.00,,,0.00,WUHU216HW,2013-01-15 19:51:00,
2013-01-15 13:56:00,35.6,23.2,30.15,SW,225,6.5,6.5,60,0.00,,,0.00,WUHU216HW,2013-01-15 19:56:00,
2013-01-15 14:01:00,35.6,23.2,30.15,SW,225,6.9,6.9,60,0.00,,,0.00,WUHU216HW,2013-01-15 20:01:00,
2013-01-15 14:06:00,35.6,23.2,30.14,SW,225,7.8,7.8,60,0.00,,,0.00,WUHU216HW,2013-01-15 20:06:00,
2013-01-15 14:11:00,35.5,23.0,30.14,SW,225,2.7,7.8,60,0.00,,,0.00,WUHU216HW,2013-01-15 20:11:00,
2013-01-15 14:16:00,35.1,22.7,30.14,SW,225,4.3,4.7,60,0.00,,,0.00,WUHU216HW,2013-01-15 20:16:00,
2013-01-15 14:21:00,35.1,23.0,30.14,SSW,203,3.4,4.7,61,0.00,,,0.00,WUHU216HW,2013-01-15 20:21:00,
2013-01-15 14:26:00,35.3,22.9,30.14,SSW,203,4.5,7.6,60,0.00,,,0.00,WUHU216HW,2013-01-15 20:26:00,
2013-01-15 14:31:00,35.6,23.2,30.14,SSW,203,3.4,7.6,60,0.00,,,0.00,WUHU216HW,2013-01-15 20:31:00,
2013-01-15 14:36:00,35.6,23.2,30.14,WSW,248,4.5,5.8,60,0.00,,,0.00,WUHU216HW,2013-01-15 20:36:00,
2013-01-15 14:42:00,35.6,23.2,30.13,WSW,248,2.5,5.8,60,0.00,,,0.00,WUHU216HW,2013-01-15 20:42:00,
2013-01-15 14:47:00,35.1,23.0,30.14,SSW,203,5.8,5.8,61,0.00,,,0.00,WUHU216HW,2013-01-15 20:47:00,
2013-01-15 14:52:00,35.3,23.2,30.13,SSW,203,5.1,7.4,61,0.00,,,0.00,WUHU216HW,2013-01-15 20:52:00,
2013-01-15 14:57:00,34.9,22.5,30.14,SW,225,5.4,7.4,60,0.00,,,0.00,WUHU216HW,2013-01-15 20:57:00,
2013-01-15 15:02:00,35.1,23.0,30.13,SW,225,5.4,6.0,61,0.00,,,0.00,WUHU216HW,2013-01-15 21:02:00,
2013-01-15 15:07:00,35.1,23.0,30.13,SSW,203,6.0,6.0,61,0.00,,,0.00,WUHU216HW,2013-01-15 21:07:00,
2013-01-15 15:12:00,35.3,23.2,30.13,SSW,203,6.9,6.9,61,0.00,,,0.00,WUHU216HW,2013-01-15 21:12:00,
2013-01-15 15:17:00,35.1,22.7,30.13,SW,225,3.4,6.9,60,0.00,,,0.00,WUHU216HW,2013-01-15 21:17:00,
2013-01-15 15:22:00,34.9,22.9,30.13,SW,225,4.9,6.7,61,0.00,,,0.00,WUHU216HW,2013-01-15 21:22:00,
2013-01-15 15:27:00,34.9,22.9,30.13,WSW,248,4.0,6.5,61,0.00,,,0.00,WUHU216HW,2013-01-15 21:27:00,
2013-01-15 15:32:00,35.1,23.0,30.13,SSW,203,7.2,7.2,61,0.00,,,0.00,WUHU216HW,2013-01-15 21:32:00,
2013-01-15 15:37:00,34.7,22.7,30.13,SSW,203,4.5,7.2,61,0.00,,,0.00,WUHU216HW,2013-01-15 21:37:00,
2013-01-15 15:42:00,34.4,22.3,30.13,SW,225,7.6,7.6,61,0.00,,,0.00,WUHU216HW,2013-01-15 21:42:00,
2013-01-15 15:48:00,34.2,22.5,30.13,SSW,203,5.1,7.6,62,0.00,,,0.00,WUHU216HW,2013-01-15 21:48:00,
2013-01-15 15:53:00,34.2,22.5,30.13,SW,225,4.0,7.6,62,0.00,,,0.00,WUHU216HW,2013-01-15 21:53:00,
2013-01-15 15:58:00,34.0,22.3,30.13,SSW,203,4.7,5.1,62,0.00,,,0.00,WUHU216HW,2013-01-15 21:58:00,
2013-01-15 16:03:00,34.0,22.3,30.13,SSW,203,5.6,6.7,62,0.00,,,0.00,WUHU216HW,2013-01-15 22:03:00,
2013-01-15 16:08:00,33.8,22.1,30.13,SW,225,4.0,6.7,62,0.00,,,0.00,WUHU216HW,2013-01-15 22:08:00,
2013-01-15 16:13:00,33.8,22.1,30.13,SW,225,4.0,5.4,62,0.00,,,0.00,WUHU216HW,2013-01-15 22:13:00,
2013-01-15 16:36:00,33.1,22.2,30.12,SSW,203,6.3,6.3,64,0.00,,,0.00,WUHU216HW,2013-01-15 22:36:00,
2013-01-15 16:41:00,32.8,21.9,30.12,SSW,203,6.0,6.3,64,0.00,,,0.00,WUHU216HW,2013-01-15 22:41:00,
2013-01-15 16:46:00,32.8,21.9,30.12,SSW,203,5.4,6.3,64,0.00,,,0.00,WUHU216HW,2013-01-15 22:46:00,
2013-01-15 16:51:00,32.6,21.7,30.12,SW,225,4.9,7.6,64,0.00,,,0.00,WUHU216HW,2013-01-15 22:51:00,
2013-01-15 16:56:00,32.4,22.0,30.11,WSW,248,5.6,7.6,65,0.00,,,0.00,WUHU216HW,2013-01-15 22:56:00,
2013-01-15 17:01:00,32.0,21.6,30.11,SSW,203,3.4,6.0,65,0.00,,,0.00,WUHU216HW,2013-01-15 23:01:00,
2013-01-15 17:06:00,31.9,21.4,30.11,SSW,203,3.4,4.9,65,0.00,,,0.00,WUHU216HW,2013-01-15 23:06:00,
2013-01-15 17:11:00,31.5,21.4,30.11,SW,225,3.8,6.5,66,0.00,,,0.00,WUHU216HW,2013-01-15 23:11:00,
2013-01-15 17:16:00,31.1,21.1,30.11,SSW,203,3.6,6.5,66,0.00,,,0.00,WUHU216HW,2013-01-15 23:16:00,
2013-01-15 17:21:00,30.8,20.7,30.11,SW,225,3.6,3.8,66,0.00,,,0.00,WUHU216HW,2013-01-15 23:21:00,
2013-01-15 17:26:00,30.4,20.3,30.11,SW,225,1.8,4.7,66,0.00,,,0.00,WUHU216HW,2013-01-15 23:26:00,
2013-01-15 17:31:00,30.1,20.0,30.11,SW,225,1.6,4.7,66,0.00,,,0.00,WUHU216HW,2013-01-15 23:31:00,
2013-01-15 17:36:00,29.7,19.7,30.11,SW,225,3.6,3.6,66,0.00,,,0.00,WUHU216HW,2013-01-15 23:36:00,
2013-01-15 17:41:00,29.2,19.5,30.11,SW,225,3.1,3.6,67,0.00,,,0.00,WUHU216HW,2013-01-15 23:41:00,
2013-01-15 17:46:00,29.0,19.7,30.11,SW,225,3.4,3.6,68,0.00,,,0.00,WUHU216HW,2013-01-15 23:46:00,
2013-01-15 17:51:00,28.6,19.8,30.11,SSW,203,2.5,3.6,69,0.00,,,0.00,WUHU216HW,2013-01-15 23:51:00,
2013-01-15 17:56:00,28.4,19.6,30.11,SSW,203,2.5,3.4,69,0.00,,,0.00,WUHU216HW,2013-01-15 23:56:00,
2013-01-15 18:01:00,28.3,19.8,30.11,SSW,203,2.9,2.9,70,0.00,,,0.00,WUHU216HW,2013-01-16 00:01:00,
2013-01-15 18:06:00,28.1,19.6,30.11,SW,225,2.5,2.9,70,0.00,,,0.00,WUHU216HW,2013-01-16 00:06:00,
2013-01-15 18:11:00,27.7,19.3,30.11,SSW,203,2.7,2.7,70,0.00,,,0.00,WUHU216HW,2013-01-16 00:11:00,
2013-01-15 18:16:00,27.7,19.5,30.11,SSW,203,2.5,2.7,71,0.00,,,0.00,WUHU216HW,2013-01-16 00:16:00,
2013-01-15 18:21:00,27.4,19.2,30.11,SSW,203,2.0,2.7,71,0.00,,,0.00,WUHU216HW,2013-01-16 00:21:00,
2013-01-15 18:26:00,27.2,19.0,30.11,SSW,203,2.2,2.7,71,0.00,,,0.00,WUHU216HW,2013-01-16 00:26:00,
2013-01-15 18:31:00,27.0,19.2,30.11,SSW,203,2.5,2.5,72,0.00,,,0.00,WUHU216HW,2013-01-16 00:31:00,
2013-01-15 18:36:00,26.6,18.8,30.11,SSW,203,2.2,2.5,72,0.00,,,0.00,WUHU216HW,2013-01-16 00:36:00,
2013-01-15 18:41:00,26.5,18.6,30.11,SSW,203,2.5,2.5,72,0.00,,,0.00,WUHU216HW,2013-01-16 00:41:00,
2013-01-15 18:46:00,26.1,18.3,30.11,SSW,203,1.6,2.5,72,0.00,,,0.00,WUHU216HW,2013-01-16 00:46:00,
2013-01-15 18:51:00,25.7,17.9,30.11,SSW,203,1.6,2.5,72,0.00,,,0.00,WUHU216HW,2013-01-16 00:51:00,
2013-01-15 18:56:00,25.4,17.6,30.10,SSW,203,0.0,2.0,72,0.00,,,0.00,WUHU216HW,2013-01-16 00:56:00,
2013-01-15 19:01:00,25.2,17.4,30.11,SSW,203,1.6,1.6,72,0.00,,,0.00,WUHU216HW,2013-01-16 01:01:00,
2013-01-15 19:07:00,24.8,16.8,30.10,SSW,203,1.6,1.8,71,0.00,,,0.00,WUHU216HW,2013-01-16 01:07:00,
2013-01-15 19:12:00,24.3,16.6,30.10,SSW,203,1.8,2.0,72,0.00,,,0.00,WUHU216HW,2013-01-16 01:12:00,
2013-01-15 19:17:00,24.1,16.4,30.10,SSW,203,1.6,2.0,72,0.00,,,0.00,WUHU216HW,2013-01-16 01:17:00,
2013-01-15 19:22:00,24.1,16.4,30.10,SSW,203,1.6,1.8,72,0.00,,,0.00,WUHU216HW,2013-01-16 01:22:00,
2013-01-15 19:27:00,23.8,16.4,30.10,SSW,203,1.6,1.8,73,0.00,,,0.00,WUHU216HW,2013-01-16 01:27:00,
2013-01-15 19:32:00,23.4,16.0,30.09,SSW,203,2.0,2.0,73,0.00,,,0.00,WUHU216HW,2013-01-16 01:32:00,
2013-01-15 19:37:00,23.2,15.8,30.09,SSW,203,2.0,2.9,73,0.00,,,0.00,WUHU216HW,2013-01-16 01:37:00,
2013-01-15 19:42:00,23.0,16.0,30.09,SSW,203,2.0,2.9,74,0.00,,,0.00,WUHU216HW,2013-01-16 01:42:00,
2013-01-15 19:47:00,22.9,15.9,30.08,SSW,203,1.1,2.5,74,0.00,,,0.00,WUHU216HW,2013-01-16 01:47:00,
2013-01-15 19:52:00,22.7,15.9,30.08,SSW,203,1.8,3.6,75,0.00,,,0.00,WUHU216HW,2013-01-16 01:52:00,
2013-01-15 19:57:00,22.7,15.9,30.08,SSW,203,1.1,3.6,75,0.00,,,0.00,WUHU216HW,2013-01-16 01:57:00,
2013-01-15 20:02:00,22.7,15.9,30.08,SSW,203,0.9,2.0,75,0.00,,,0.00,WUHU216HW,2013-01-16 02:02:00,
2013-01-15 20:07:00,22.7,15.9,30.08,SSW,203,0.9,1.1,75,0.00,,,0.00,WUHU216HW,2013-01-16 02:07:00,
2013-01-15 20:30:00,21.8,15.3,30.07,SSW,203,1.3,1.3,76,0.00,,,0.00,WUHU216HW,2013-01-16 02:30:00,
2013-01-15 20:35:00,21.8,15.7,30.07,SSW,203,1.8,2.5,77,0.00,,,0.00,WUHU216HW,2013-01-16 02:35:00,
2013-01-15 20:40:00,21.6,15.5,30.07,SSW,203,2.2,2.5,77,0.00,,,0.00,WUHU216HW,2013-01-16 02:40:00,
2013-01-15 20:45:00,21.4,15.3,30.06,SSW,203,2.0,2.5,77,0.00,,,0.00,WUHU216HW,2013-01-16 02:45:00,
2013-01-15 20:50:00,21.2,15.1,30.06,SSW,203,2.0,2.7,77,0.00,,,0.00,WUHU216HW,2013-01-16 02:50:00,
2013-01-15 20:55:00,21.2,14.8,30.06,SSW,203,2.2,2.7,76,0.00,,,0.00,WUHU216HW,2013-01-16 02:55:00,
2013-01-15 21:00:00,21.2,15.1,30.05,SSW,203,1.8,2.7,77,0.00,,,0.00,WUHU216HW,2013-01-16 03:00:00,
2013-01-15 21:05:00,21.1,15.0,30.06,SSW,203,1.1,2.5,77,0.00,,,0.00,WUHU216HW,2013-01-16 03:05:00,
2013-01-15 21:10:00,20.9,14.8,30.06,SSW,203,2.9,2.9,77,0.00,,,0.00,WUHU216HW,2013-01-16 03:10:00,
2013-01-15 21:15:00,20.5,14.4,30.06,SSW,203,1.8,2.9,77,0.00,,,0.00,WUHU216HW,2013-01-16 03:15:00,
2013-01-15 21:20:00,20.5,14.4,30.06,SSW,203,1.6,2.5,77,0.00,,,0.00,WUHU216HW,2013-01-16 03:20:00,
2013-01-15 21:25:00,20.3,14.2,30.06,SSW,203,1.3,2.5,77,0.00,,,0.00,WUHU216HW,2013-01-16 03:25:00,
2013-01-15 21:30:00,20.2,14.3,30.06,SSW,203,2.0,2.5,78,0.00,,,0.00,WUHU216HW,2013-01-16 03:30:00,
2013-01-15 21:35:00,19.8,14.0,30.06,SSW,203,2.0,2.5,78,0.00,,,0.00,WUHU216HW,2013-01-16 03:35:00,
2013-01-15 21:40:00,19.8,14.0,30.05,SSW,203,2.0,2.5,78,0.00,,,0.00,WUHU216HW,2013-01-16 03:40:00,
2013-01-15 21:45:00,19.6,13.8,30.05,SSW,203,3.1,3.1,78,0.00,,,0.00,WUHU216HW,2013-01-16 03:45:00,
2013-01-15 21:50:00,19.4,13.6,30.05,SSW,203,3.6,3.6,78,0.00,,,0.00,WUHU216HW,2013-01-16 03:50:00,
2013-01-15 21:55:00,19.6,13.8,30.05,SSW,203,3.1,3.6,78,0.00,,,0.00,WUHU216HW,2013-01-16 03:55:00,
2013-01-15 22:00:00,19.8,14.3,30.04,SSW,203,2.9,3.4,79,0.00,,,0.00,WUHU216HW,2013-01-16 04:00:00,
2013-01-15 22:05:00,19.8,14.3,30.05,SSW,203,2.9,3.1,79,0.00,,,0.00,WUHU216HW,2013-01-16 04:05:00,
2013-01-15 22:10:00,19.8,14.3,30.04,SSW,203,2.5,2.9,79,0.00,,,0.00,WUHU216HW,2013-01-16 04:10:00,
2013-01-15 22:15:00,19.8,14.3,30.04,SSW,203,2.9,2.9,79,0.00,,,0.00,WUHU216HW,2013-01-16 04:15:00,
2013-01-15 22:20:00,19.8,14.3,30.04,SSW,203,2.7,3.6,79,0.00,,,0.00,WUHU216HW,2013-01-16 04:20:00,
2013-01-15 22:25:00,19.8,14.3,30.03,SSW,203,3.6,3.6,79,0.00,,,0.00,WUHU216HW,2013-01-16 04:25:00,
2013-01-15 22:30:00,20.0,14.8,30.03,SSW,203,3.4,3.6,80,0.00,,,0.00,WUHU216HW,2013-01-16 04:30:00,
2013-01-15 22:35:00,20.2,14.9,30.03,SSW,203,3.4,3.4,80,0.00,,,0.00,WUHU216HW,2013-01-16 04:35:00,
2013-01-15 22:40:00,20.2,14.9,30.02,SSW,203,3.4,3.4,80,0.00,,,0.00,WUHU216HW,2013-01-16 04:40:00,
2013-01-15 22:45:00,20.2,14.9,30.02,SSW,203,4.0,4.0,80,0.00,,,0.00,WUHU216HW,2013-01-16 04:45:00,
2013-01-15 22:50:00,20.3,15.1,30.02,SSW,203,3.6,4.5,80,0.00,,,0.00,WUHU216HW,2013-01-16 04:50:00,
2013-01-15 22:55:00,20.3,15.1,30.02,SSW,203,4.3,4.5,80,0.00,,,0.00,WUHU216HW,2013-01-16 04:55:00,
2013-01-15 23:01:00,20.3,15.1,30.02,SSW,203,3.4,4.5,80,0.00,,,0.00,WUHU216HW,2013-01-16 05:01:00,
2013-01-15 23:02:00,20.3,15.1,30.03,SSW,203,3.4,4.3,80,0.00,,,0.00,WUHU216HW,2013-01-16 05:02:00,
2013-01-15 23:03:00,20.5,15.3,30.02,SSW,203,4.0,4.3,80,0.00,,,0.00,WUHU216HW,2013-01-16 05:03:00,
2013-01-15 23:08:00,20.5,15.3,30.02,SSW,203,3.8,4.3,80,0.00,,,0.00,WUHU216HW,2013-01-16 05:08:00,
2013-01-15 23:13:00,20.5,15.3,30.02,SSW,203,2.5,4.3,80,0.00,,,0.00,WUHU216HW,2013-01-16 05:13:00,
2013-01-15 23:18:00,20.3,15.1,30.02,SSW,203,3.1,4.0,80,0.00,,,0.00,WUHU216HW,2013-01-16 05:18:00,
2013-01-15 23:23:00,20.2,14.9,30.02,SSW,203,3.4,4.0,80,0.00,,,0.00,WUHU216HW,2013-01-16 05:23:00,
2013-01-15 23:28:00,20.2,14.9,30.02,SSW,203,3.1,4.0,80,0.00,,,0.00,WUHU216HW,2013-01-16 05:28:00,
2013-01-15 23:33:00,20.0,14.8,30.02,SSW,203,3.4,3.4,80,0.00,,,0.00,WUHU216HW,2013-01-16 05:33:00,
2013-01-15 23:38:00,19.8,14.6,30.01,SSW,203,4.3,4.3,80,0.00,,,0.00,WUHU216HW,2013-01-16 05:38:00,
2013-01-15 23:43:00,19.8,14.6,30.01,SSW,203,4.5,4.5,80,0.00,,,0.00,WUHU216HW,2013-01-16 05:43:00,
2013-01-15 23:48:00,19.8,14.6,30.01,SSW,203,2.5,4.5,80,0.00,,,0.00,WUHU216HW,2013-01-16 05:48:00,
2013-01-15 23:53:00,19.8,14.6,30.00,SSW,203,3.4,4.5,80,0.00,,,0.00,WUHU216HW,2013-01-16 05:53:00,
2013-01-15 23:58:00,19.8,14.6,30.00,SSW,203,3.1,3.8,80,0.00,,,0.00,WUHU216HW,2013-01-16 05:58:00,